SIRIUSSAT 2

Last updated on Mon Oct 22 2018 00:00:45 GMT+0000 (Coordinated Universal Time)

1 43596U 98067PH 18294.53185811 .00007843 00000-0 11966-3 0 9991 2 43596 51.6389 108.6291 0003874 286.4045 73.6520 15.55474806 10390

Satellite not in orbit

SIRIUSSAT 2